ANTARES R/B (45177 NORAD) Tracking and Keplerian Element Data

This shows tracking and keplerian element data for the satellite.

Feedback or suggestion? Click here.




ElementValue
Catalog45177
NameANTARES R/B
Epoch Orbit98
Epoch Day52.92783074
Epoch Year2020
RAAN200.9505
Inclination51.6
Eccentricity0.0019918
Argument of Perigee160.609
Mean Anonmoly199.531
Mean Motion16.33843943
Decay Rate0.03307232
L11 45177U 20011C 20052.92783074 .03307232 12156-4 44482-3 0 9991
L22 45177 51.6000 200.9505 0019918 160.6090 199.5310 16.33843943 988



Live tracking and technical data element details for ANTARES R/B (NORAD 45177). ANTARES R/B can be tracked NOW for your location showing map with azimuth and elevation plus other details from your city location.







IsCatalogInMostPopularTable: catalog: 45177, numindb: 174
Update: records affected: 1



GetName: 45177 ANTARES R/B

Hit Count: updated at: Sun, 28 May 2023 19:36:42 GMT